Regional Weather Roundup
Issued by NWS Northern Indiana

Home | Current Version | Previous Version | Graphics & Text | Print | Product List | Glossary On
Versions: 1 2 3 4 5 6 7 8 9 10 11 12 13 14 15 16 17 18 19 20 21 22 23 24 25 26 27 28 29 30 31 32 33 34 35 36 37 38 39 40 41 42 43 44 45 46 47 48 49 50
000
ASUS43 KIWX 251100
RWRIWX

KIWX WEATHER ROUNDUP
NATIONAL WEATHER SERVICE NORTHERN INDIANA
700 AM EDT SAT MAR 25 2017

NOTE: "FAIR" INDICATES FEW OR NO CLOUDS BELOW 12,000 FEET WITH NO
SIGNIFICANT WEATHER AND/OR OBSTRUCTIONS TO VISIBILITY.

* THESE STATIONS ARE NOT UNDER NWS QUALITY CONTROL. THEY ALSO MAY NOT
  REPORT WEATHER SUCH AS PRECIPITATION OR FOG.

INZ001>027-251200-
NORTHERN INDIANA

CITY           SKY/WX    TMP DP  RH WIND       PRES   REMARKS
GARY*          CLOUDY    41  41 100 N6        30.04R FOG
SOUTH BEND     LGT RAIN  46  46 100 S6        30.06R FOG
GOSHEN         LGT RAIN  54  50  86 E6        30.04R
MONTICELLO*    CLOUDY    50  46  84 NE5       30.00R
ANGOLA*        MOCLDY    55  54  94 CALM      30.05R
FORT WAYNE     CLOUDY    57  51  80 S6        30.05R
PERU/GRISSOM   CLOUDY    57  55  94 SE9       30.00S

$$
INZ028>050-251200-
CENTRAL INDIANA

CITY           SKY/WX    TMP DP  RH WIND       PRES   REMARKS
LAFAYETTE      MOCLDY    60  53  77 S6        29.98R
KOKOMO*        LGT RAIN  57  52  83 SE10      30.03S
MUNCIE*        CLOUDY    63  51  65 S9        30.05R
INDIANAPOLIS   CLOUDY    60  52  74 SE9       30.03R

$$
MIZ043>046-050>051-056>058-064>065-071>073-077>080-251200-
SOUTHWEST LOWER MICHIGAN

CITY           SKY/WX    TMP DP  RH WIND       PRES   REMARKS
BATTLE CREEK   RAIN      41  41 100 NE10      30.10R FOG
BENTON HARBOR  RAIN      47  45  93 E9        30.04S FOG
COLDWATER*     CLOUDY    48  46  90 NE7       30.07R
HILLSDALE*     CLOUDY    45  41  87 E5        30.07R
HOLLAND        CLOUDY    41  38  89 E15       30.09R
GRAND RAPIDS   LGT RAIN  38  35  89 E14       30.12R
KALAMAZOO      LGT RAIN  43  40  89 NE7       30.09R FOG
STURGIS*       CLOUDY    47  46  93 NE6       30.05R
THREE RIVERS*  LGT RAIN  46  45  95 N7        30.08R

$$
OHZ001>008-015>018-024>025-251200-
NORTHWEST OHIO

CITY           SKY/WX    TMP DP  RH WIND       PRES   REMARKS
DEFIANCE       CLOUDY    54  50  86 E3        30.07R
FINDLAY        MOCLDY    60  51  72 SW9       30.07R
TOLEDO EXPRESS CLOUDY    45  40  82 E3        30.09R
TOLEDO METCALF CLOUDY    44  41  89 NE5       30.10R
LIMA           CLOUDY    60  53  77 S9        30.08R

$$
AND FOR LAKE MICHIGAN COASTAL AND OPEN LAKE BUOY OBSERVATIONS

STATION/POSITION TEMP    WIND        PRES    VSBY  WAVE
                 AIR SEA DIR/SP/G                  HT/PER
                 (F)     (DEG/KT/KT) (MB)    (MI)  (FT/S)
CALUMET HARBOR           330/  7/ 12 1016.8R
MICHIGAN CITY     40     170/  2/  3   N/A
BURNS HARBOR      40     260/  2/  3 1017.6S
SAINT JOSEPH      41      CALM  /  2 1017.3

$$
&&



USA.gov is the U.S. government's official web portal to all federal, state and local government web resources and services.